CENTAURI-1 (43809 NORAD) Tracking and Keplerian Element Data

This shows tracking and keplerian element data for the satellite.

Feedback or suggestion? Click here.




ElementValue
Catalog43809
NameCENTAURI-1
Epoch Orbit33713
Epoch Day34.71616594
Epoch Year2025
RAAN92.3811
Inclination97.4954
Eccentricity0.0015502
Argument of Perigee248.6078
Mean Anonmoly111.3497
Mean Motion15.08938209
Decay Rate9.574E-05
L11 43809U 18099BD 25034.71616594 .00009574 00000+0 60860-3 0 9991
L22 43809 97.4954 92.3811 0015502 248.6078 111.3497 15.08938209337134



Live tracking and technical data element details for CENTAURI-1 (NORAD 43809). CENTAURI-1 can be tracked NOW for your location showing map with azimuth and elevation plus other details from your city location.







IsCatalogInMostPopularTable: catalog: 43809, numindb: 346
Update: records affected: 1



GetName: 43809 CENTAURI-1

Hit Count: updated at: Sat, 17 May 2025 09:28:11 GMT